2024-173F

Last updated on Fri Oct 04 2024 00:02:05 GMT+0000 (Coordinated Universal Time)

1 61232U 24173F 24277.53414269 .00046941 00000+0 18776-2 0 9991 2 61232 97.4068 350.2466 0011350 242.4242 117.5844 15.24877602 1380
UTC large
Height (km)
Speed (km/s)
/
Latitude / Longitude
Inclination (degrees)
Orbital Period (minutes)
Azimuth
Elevation
Range (km)
Doppler Factor

Next 0 passes for location: London (51.5072 / 0.1276)

Sorry there are no passes over London.